QPF
0.00 0.00 0.00 0.00 0.00 0.00 0.00 0.00 0.00 0.00 0.00 0.00 0.00 0.00 0.00 0.00 0.00 0.00 0.00 0.00 0.00 0.00 0.00 0.00 0.00 0.00 0.00 0.00 0.00 0.00 0.00 0.00 0.00 0.00 0.00 0.00 0.00 0.00 0.00 0.00 0.00 0.00 0.00 0.00
0.00 0.00 0.00 0.00 0.00 0.00 0.00 0.00 0.00 0.00 0.00 0.00 0.00 0.00 0.00 0.00 0.00 0.00 0.00 0.00 0.00 0.00 0.00 0.00 0.00 0.00 0.00 0.00 0.00 0.00 0.00 0.00 0.00 0.00 0.00 0.00 0.00 0.00 0.00 0.00 0.00 0.00 0.00 0.00
0.00 0.00 0.00 0.00 0.00 0.00 0.00 0.00 0.00 0.00 0.00 0.00 0.00 0.00 0.00 0.00 0.00 0.00 0.00 0.00 0.00 0.00 0.00 0.00 0.00 0.00 0.00 0.00 0.00 0.00 0.00 0.00 0.00 0.00 0.00 0.00 0.00 0.00 0.00 0.00 0.00 0.00 0.00 0.00
0.00 0.00 0.00 0.00 0.00 0.00 0.00 0.00 0.00 0.00 0.00 0.00 0.00 0.00 0.00 0.00 0.00 0.00 0.00 0.00 0.00 0.00 0.00 0.00 0.00 0.00 0.00 0.00 0.00 0.00 0.00 0.00 0.00 0.00 0.00 0.00 0.00 0.00 0.00 0.00 0.00 0.00 0.00 0.00
0.00 0.00 0.00 0.00 0.00 0.00 0.00 0.00 0.00 0.00 0.00 0.00 0.00 0.00 0.00 0.00 0.00 0.00 0.00 0.00 0.00 0.00 0.00 0.00 0.00 0.00 0.00 0.00 0.00 0.00 0.00 0.00 0.00 0.00 0.00 0.00 0.00 0.00 0.00 0.00 0.00 0.00 0.00 0.00
0.00 0.00 0.00 0.00 0.00 0.00 0.00 0.00 0.00 0.00 0.00 0.00 0.00 0.00 0.00 0.00 0.00 0.00 0.00 0.00 0.00 0.00 0.00 0.00 0.00 0.00 0.00 0.00 0.00 0.00 0.00 0.00 0.00 0.00 0.00 0.00 0.00 0.00 0.00 0.00 0.00 0.00 0.00 0.00
0.00 0.00 0.00 0.00 0.00 0.00 0.00 0.00 0.00 0.00 0.00 0.00 0.00 0.00 0.00 0.00 0.00 0.00 0.00 0.00 0.00 0.00 0.00 0.00 0.00 0.00 0.00 0.00 0.00 0.00 0.00 0.00 0.00 0.00 0.00 0.00 0.00 0.00 0.00 0.00 0.00 0.00 0.00 0.00
0.00 0.00 0.00 0.00 0.00 0.00 0.00 0.00 0.00 0.00 0.00 0.00 0.00 0.00 0.00 0.00 0.00 0.00 0.00 0.00 0.00 0.00 0.00 0.00 0.00 0.00 0.00 0.00 0.00 0.00 0.00 0.00 0.00 0.00 0.00 0.00 0.00 0.00 0.00 0.00 0.00 0.00 0.00 0.00
0.00 0.00 0.00 0.00 0.00 0.00 0.00 0.00 0.00 0.00 0.00 0.00 0.00 0.00 0.00 0.00 0.00 0.00 0.00 0.00 0.00 0.00 0.00 0.00 0.00 0.00 0.00 0.00 0.00 0.00 0.00 0.00 0.00 0.00 0.00 0.00 0.00 0.00 0.00 0.00 0.00 0.00 0.00 0.00
0.00 0.00 0.00 0.00 0.00 0.00 0.00 0.00 0.00 0.00 0.00 0.00 0.00 0.00 0.00 0.00 0.00 0.00 0.00 0.00 0.00 0.00 0.00 0.00 0.00 0.00 0.00 0.00 0.00 0.00 0.00 0.00 0.00 0.00 0.00 0.00 0.00 0.00 0.00 0.00 0.00 0.00 0.00 0.00
0.00 0.00 0.00 0.00 0.00 0.00 0.00 0.00 0.00 0.00 0.00 0.00 0.00 0.00 0.00 0.00 0.00 0.00 0.00 0.00 0.00 0.00 0.00 0.00 0.00 0.00 0.00 0.00 0.00 0.00 0.00 0.00 0.00 0.00 0.00 0.00 0.00 0.00 0.00 0.00 0.00 0.00 0.00 0.00
0.00 0.00 0.00 0.00 0.00 0.00 0.00 0.00 0.00 0.00 0.00 0.00 0.00 0.00 0.00 0.00 0.00 0.00 0.00 0.00 0.00 0.00 0.00 0.00 0.00 0.00 0.00 0.00 0.00 0.00 0.00 0.00 0.00 0.00 0.00 0.00 0.00 0.00 0.00 0.00 0.00 0.00 0.00 0.00
0.00 0.01 0.03 0.01 0.00 0.00 0.00 0.00 0.00 0.00 0.00 0.00 0.00 0.00 0.00 0.00 0.00 0.00 0.00 0.00 0.00 0.00 0.00 0.00 0.00 0.00 0.00 0.00 0.00 0.00 0.00 0.00 0.00 0.00 0.00 0.00 0.00 0.00 0.00 0.00 0.00 0.00 0.00 0.00
0.01 0.03 0.03 0.01 0.00 0.00 0.00 0.00 0.00 0.00 0.00 0.00 0.00 0.00 0.00 0.00 0.00 0.00 0.00 0.00 0.00 0.00 0.00 0.00 0.00 0.00 0.00 0.00 0.00 0.00 0.00 0.00 0.00 0.00 0.00 0.00 0.00 0.00 0.00 0.00 0.00 0.00 0.00 0.00
0.03 0.06 0.02 0.00 0.00 0.00 0.00 0.00 0.00 0.00 0.00 0.00 0.00 0.00 0.00 0.00 0.00 0.00 0.00 0.00 0.00 0.00 0.00 0.00 0.00 0.00 0.00 0.00 0.00 0.00 0.00 0.00 0.00 0.00 0.00 0.00 0.00 0.00 0.00 0.00 0.00 0.00 0.00 0.00
0.07 0.09 0.04 0.01 0.00 0.00 0.02 0.02 0.00 0.00 0.00 0.00 0.00 0.00 0.00 0.00 0.00 0.00 0.00 0.00 0.00 0.00 0.00 0.00 0.00 0.00 0.00 0.00 0.00 0.00 0.00 0.00 0.00 0.00 0.00 0.00 0.00 0.00 0.00 0.00 0.00 0.00 0.00 0.00
0.24 0.24 0.17 0.09 0.02 0.04 0.12 0.06 0.01 0.00 0.00 0.00 0.00 0.00 0.00 0.00 0.00 0.00 0.00 0.00 0.00 0.00 0.00 0.00 0.00 0.00 0.00 0.00 0.00 0.00 0.00 0.00 0.00 0.00 0.00 0.00 0.00 0.00 0.00 0.00 0.00 0.00 0.00 0.00
0.31 0.34 0.37 0.31 0.17 0.18 0.11 0.02 0.00 0.00 0.00 0.00 0.00 0.00 0.00 0.00 0.00 0.00 0.00 0.00 0.00 0.00 0.00 0.00 0.00 0.00 0.00 0.00 0.00 0.00 0.00 0.00 0.00 0.00 0.00 0.00 0.00 0.00 0.00 0.00 0.00 0.00 0.00 0.00
0.19 0.23 0.40 0.51 0.41 0.22 0.03 0.00 0.00 0.00 0.00 0.00 0.00 0.00 0.00 0.00 0.00 0.00 0.00 0.00 0.00 0.00 0.00 0.00 0.00 0.00 0.00 0.00 0.00 0.00 0.00 0.00 0.00 0.00 0.00 0.00 0.00 0.00 0.00 0.00 0.00 0.00 0.00 0.00
0.09 0.15 0.33 0.59 0.57 0.26 0.02 0.00 0.00 0.00 0.00 0.00 0.00 0.00 0.00 0.00 0.00 0.00 0.00 0.00 0.00 0.00 0.00 0.00 0.00 0.00 0.00 0.00 0.00 0.00 0.00 0.00 0.00 0.00 0.00 0.00 0.00 0.00 0.00 0.00 0.00 0.00 0.00 0.00
0.04 0.13 0.31 0.46 0.47 0.23 0.02 0.00 0.00 0.00 0.00 0.00 0.00 0.00 0.00 0.00 0.00 0.00 0.00 0.00 0.00 0.00 0.00 0.00 0.00 0.00 0.00 0.00 0.00 0.00 0.00 0.00 0.00 0.00 0.00 0.00 0.00 0.00 0.00 0.00 0.00 0.00 0.00 0.00
0.03 0.09 0.18 0.23 0.34 0.23 0.02 0.00 0.00 0.00 0.00 0.00 0.00 0.00 0.00 0.00 0.00 0.00 0.00 0.00 0.00 0.00 0.00 0.00 0.00 0.00 0.00 0.01 0.01 0.01 0.00 0.00 0.00 0.01 0.01 0.00 0.00 0.00 0.00 0.00 0.00 0.00 0.00 0.00
0.02 0.04 0.05 0.08 0.12 0.06 0.01 0.01 0.01 0.00 0.00 0.00 0.00 0.00 0.00 0.00 0.00 0.00 0.00 0.00 0.00 0.00 0.00 0.00 0.00 0.00 0.00 0.01 0.01 0.01 0.00 0.00 0.00 0.00 0.00 0.00 0.00 0.00 0.00 0.00 0.00 0.00 0.00 0.00
0.01 0.01 0.02 0.03 0.03 0.02 0.02 0.01 0.01 0.01 0.00 0.00 0.00 0.00 0.00 0.00 0.00 0.00 0.00 0.00 0.00 0.00 0.00 0.00 0.00 0.00 0.00 0.00 0.00 0.00 0.00 0.00 0.00 0.00 0.00 0.00 0.00 0.00 0.00 0.00 0.00 0.00 0.00 0.00
0.01 0.01 0.02 0.03 0.02 0.02 0.02 0.01 0.01 0.01 0.01 0.00 0.00 0.00 0.00 0.00 0.00 0.00 0.00 0.00 0.00 0.00 0.00 0.00 0.00 0.00 0.00 0.00 0.00 0.00 0.00 0.00 0.00 0.00 0.00 0.00 0.00 0.00 0.00 0.00 0.00 0.00 0.00 0.00
0.02 0.01 0.02 0.02 0.01 0.02 0.01 0.01 0.01 0.01 0.01 0.00 0.00 0.00 0.00 0.00 0.00 0.00 0.00 0.00 0.00 0.00 0.00 0.00 0.00 0.00 0.00 0.00 0.00 0.00 0.00 0.00 0.00 0.00 0.00 0.00 0.00 0.00 0.00 0.00 0.00 0.00 0.00 0.00
MSLP
1019.75 1020.22 1020.58 1020.83 1020.99 1021.09 1021.17 1021.23 1021.28 1021.31 1021.32 1021.28 1021.18 1021.02 1020.82 1020.62 1020.46 1020.39 1020.44 1020.65 1021.01 1021.48 1022.03 1022.58 1023.07 1023.46 1023.71 1023.84 1023.87 1023.85 1023.85 1023.93 1024.13 1024.47 1024.93 1025.47 1026.06 1026.61 1027.08 1027.45 1027.71 1027.88 1028.00 1028.12
1020.03 1020.39 1020.63 1020.78 1020.89 1021.00 1021.12 1021.27 1021.42 1021.55 1021.60 1021.54 1021.35 1021.03 1020.62 1020.17 1019.76 1019.48 1019.39 1019.52 1019.87 1020.42 1021.08 1021.77 1022.40 1022.91 1023.27 1023.47 1023.55 1023.59 1023.64 1023.79 1024.09 1024.53 1025.11 1025.78 1026.46 1027.09 1027.63 1028.03 1028.30 1028.48 1028.60 1028.73
1020.00 1020.24 1020.38 1020.48 1020.58 1020.73 1020.95 1021.22 1021.51 1021.73 1021.83 1021.74 1021.43 1020.93 1020.27 1019.55 1018.88 1018.38 1018.13 1018.17 1018.53 1019.13 1019.91 1020.74 1021.52 1022.18 1022.66 1022.96 1023.13 1023.24 1023.37 1023.61 1024.00 1024.55 1025.24 1026.00 1026.78 1027.49 1028.08 1028.53 1028.83 1029.03 1029.18 1029.32
1019.65 1019.78 1019.85 1019.93 1020.07 1020.31 1020.66 1021.09 1021.51 1021.84 1021.97 1021.83 1021.40 1020.70 1019.79 1018.81 1017.88 1017.16 1016.75 1016.72 1017.07 1017.73 1018.61 1019.59 1020.52 1021.32 1021.93 1022.35 1022.63 1022.83 1023.06 1023.38 1023.86 1024.50 1025.28 1026.13 1026.98 1027.76 1028.40 1028.89 1029.24 1029.48 1029.66 1029.84
1019.03 1019.07 1019.09 1019.19 1019.40 1019.77 1020.27 1020.86 1021.42 1021.83 1021.99 1021.80 1021.24 1020.35 1019.21 1017.98 1016.83 1015.93 1015.39 1015.29 1015.63 1016.35 1017.33 1018.43 1019.50 1020.43 1021.17 1021.71 1022.09 1022.39 1022.70 1023.11 1023.67 1024.38 1025.22 1026.12 1027.03 1027.85 1028.54 1029.08 1029.48 1029.77 1030.00 1030.23
1018.24 1018.20 1018.20 1018.33 1018.64 1019.14 1019.80 1020.53 1021.21 1021.69 1021.84 1021.60 1020.92 1019.87 1018.55 1017.13 1015.81 1014.77 1014.15 1014.01 1014.36 1015.13 1016.19 1017.39 1018.57 1019.62 1020.47 1021.10 1021.58 1021.96 1022.34 1022.81 1023.42 1024.18 1025.05 1025.99 1026.92 1027.77 1028.50 1029.08 1029.53 1029.88 1030.18 1030.47
1017.37 1017.27 1017.27 1017.46 1017.86 1018.48 1019.26 1020.10 1020.85 1021.36 1021.51 1021.20 1020.43 1019.26 1017.82 1016.29 1014.88 1013.78 1013.13 1012.99 1013.37 1014.19 1015.31 1016.58 1017.83 1018.95 1019.87 1020.58 1021.12 1021.56 1021.99 1022.51 1023.14 1023.91 1024.80 1025.74 1026.67 1027.54 1028.28 1028.90 1029.40 1029.82 1030.19 1030.56
1016.51 1016.38 1016.41 1016.65 1017.13 1017.83 1018.69 1019.58 1020.35 1020.85 1020.95 1020.59 1019.75 1018.52 1017.04 1015.49 1014.08 1013.01 1012.39 1012.31 1012.73 1013.59 1014.76 1016.06 1017.34 1018.48 1019.43 1020.17 1020.74 1021.21 1021.68 1022.21 1022.86 1023.63 1024.50 1025.42 1026.34 1027.20 1027.96 1028.61 1029.16 1029.65 1030.09 1030.54
1015.71 1015.60 1015.66 1015.95 1016.49 1017.23 1018.10 1018.98 1019.70 1020.14 1020.18 1019.76 1018.89 1017.66 1016.21 1014.73 1013.42 1012.45 1011.95 1011.95 1012.44 1013.34 1014.51 1015.80 1017.07 1018.19 1019.13 1019.86 1020.44 1020.92 1021.40 1021.94 1022.59 1023.34 1024.19 1025.09 1025.99 1026.83 1027.60 1028.27 1028.86 1029.41 1029.93 1030.45
1015.00 1014.93 1015.05 1015.39 1015.95 1016.68 1017.50 1018.29 1018.91 1019.24 1019.19 1018.71 1017.84 1016.67 1015.33 1014.00 1012.87 1012.07 1011.72 1011.84 1012.41 1013.33 1014.49 1015.74 1016.95 1018.02 1018.91 1019.61 1020.17 1020.66 1021.15 1021.70 1022.34 1023.09 1023.92 1024.79 1025.67 1026.49 1027.25 1027.94 1028.57 1029.16 1029.73 1030.32
1014.32 1014.35 1014.55 1014.92 1015.47 1016.15 1016.86 1017.51 1017.97 1018.15 1017.99 1017.46 1016.62 1015.54 1014.36 1013.25 1012.34 1011.76 1011.59 1011.85 1012.49 1013.42 1014.55 1015.72 1016.84 1017.83 1018.65 1019.32 1019.88 1020.38 1020.88 1021.46 1022.12 1022.87 1023.69 1024.55 1025.40 1026.21 1026.96 1027.65 1028.30 1028.91 1029.53 1030.15
1013.64 1013.79 1014.06 1014.48 1015.00 1015.57 1016.14 1016.60 1016.86 1016.87 1016.59 1016.03 1015.22 1014.26 1013.28 1012.40 1011.74 1011.39 1011.41 1011.79 1012.48 1013.41 1014.47 1015.56 1016.58 1017.49 1018.26 1018.90 1019.46 1019.99 1020.55 1021.17 1021.87 1022.65 1023.49 1024.34 1025.18 1025.98 1026.72 1027.40 1028.05 1028.67 1029.30 1029.94
1012.88 1013.15 1013.51 1013.95 1014.42 1014.88 1015.27 1015.52 1015.58 1015.42 1015.02 1014.41 1013.66 1012.83 1012.04 1011.39 1010.97 1010.83 1011.01 1011.49 1012.22 1013.12 1014.10 1015.10 1016.03 1016.86 1017.59 1018.24 1018.84 1019.44 1020.08 1020.79 1021.56 1022.39 1023.26 1024.12 1024.96 1025.75 1026.47 1027.15 1027.79 1028.40 1029.02 1029.65
1012.00 1012.39 1012.81 1013.25 1013.66 1013.99 1014.20 1014.25 1014.12 1013.79 1013.30 1012.66 1011.96 1011.26 1010.64 1010.20 1009.98 1010.02 1010.31 1010.85 1011.57 1012.42 1013.33 1014.23 1015.08 1015.88 1016.61 1017.30 1017.98 1018.68 1019.44 1020.25 1021.12 1022.02 1022.94 1023.83 1024.67 1025.45 1026.17 1026.83 1027.45 1028.06 1028.66 1029.27
1011.00 1011.46 1011.91 1012.33 1012.65 1012.86 1012.91 1012.79 1012.50 1012.04 1011.47 1010.83 1010.19 1009.60 1009.13 1008.85 1008.78 1008.93 1009.29 1009.84 1010.52 1011.30 1012.12 1012.95 1013.75 1014.53 1015.30 1016.07 1016.86 1017.70 1018.59 1019.54 1020.52 1021.51 1022.47 1023.40 1024.25 1025.03 1025.75 1026.40 1027.01 1027.61 1028.20 1028.79
1009.91 1010.38 1010.82 1011.18 1011.42 1011.51 1011.43 1011.17 1010.77 1010.24 1009.64 1009.02 1008.44 1007.95 1007.60 1007.43 1007.45 1007.65 1008.03 1008.54 1009.16 1009.85 1010.59 1011.35 1012.13 1012.93 1013.76 1014.63 1015.56 1016.55 1017.59 1018.67 1019.76 1020.83 1021.85 1022.80 1023.67 1024.46 1025.18 1025.83 1026.45 1027.05 1027.64 1028.23
1008.78 1009.19 1009.56 1009.84 1009.99 1009.99 1009.82 1009.49 1009.04 1008.49 1007.91 1007.35 1006.85 1006.45 1006.19 1006.09 1006.15 1006.35 1006.69 1007.13 1007.65 1008.25 1008.91 1009.62 1010.38 1011.22 1012.13 1013.12 1014.19 1015.32 1016.50 1017.69 1018.87 1020.01 1021.08 1022.06 1022.94 1023.74 1024.47 1025.14 1025.78 1026.40 1027.01 1027.61
1007.66 1007.96 1008.23 1008.42 1008.48 1008.42 1008.21 1007.87 1007.43 1006.94 1006.43 1005.96 1005.56 1005.26 1005.07 1005.01 1005.07 1005.23 1005.49 1005.84 1006.26 1006.75 1007.33 1008.00 1008.77 1009.64 1010.63 1011.72 1012.90 1014.15 1015.43 1016.71 1017.95 1019.13 1020.22 1021.21 1022.11 1022.92 1023.67 1024.37 1025.05 1025.71 1026.36 1027.00
1006.60 1006.76 1006.91 1007.01 1007.01 1006.92 1006.72 1006.43 1006.08 1005.70 1005.32 1004.98 1004.69 1004.49 1004.37 1004.33 1004.37 1004.48 1004.65 1004.89 1005.21 1005.61 1006.11 1006.74 1007.50 1008.40 1009.44 1010.60 1011.85 1013.17 1014.50 1015.82 1017.08 1018.26 1019.35 1020.34 1021.24 1022.07 1022.85 1023.59 1024.32 1025.03 1025.73 1026.41
1005.63 1005.66 1005.69 1005.71 1005.69 1005.61 1005.47 1005.28 1005.07 1004.84 1004.62 1004.44 1004.29 1004.20 1004.14 1004.13 1004.15 1004.21 1004.31 1004.45 1004.67 1004.99 1005.43 1006.01 1006.76 1007.66 1008.71 1009.89 1011.16 1012.49 1013.82 1015.12 1016.35 1017.51 1018.57 1019.54 1020.44 1021.28 1022.09 1022.87 1023.64 1024.41 1025.15 1025.87
1004.75 1004.67 1004.63 1004.61 1004.59 1004.56 1004.51 1004.47 1004.41 1004.37 1004.34 1004.33 1004.33 1004.35 1004.38 1004.40 1004.42 1004.44 1004.49 1004.57 1004.72 1004.97 1005.35 1005.89 1006.60 1007.48 1008.50 1009.65 1010.88 1012.15 1013.43 1014.66 1015.83 1016.92 1017.94 1018.88 1019.76 1020.61 1021.44 1022.25 1023.06 1023.86 1024.64 1025.37
1003.97 1003.83 1003.75 1003.72 1003.74 1003.79 1003.86 1003.96 1004.08 1004.22 1004.37 1004.53 1004.69 1004.83 1004.94 1005.02 1005.07 1005.09 1005.12 1005.17 1005.28 1005.49 1005.84 1006.34 1007.00 1007.82 1008.78 1009.84 1010.99 1012.16 1013.32 1014.45 1015.53 1016.54 1017.48 1018.38 1019.25 1020.09 1020.93 1021.77 1022.59 1023.40 1024.18 1024.91
1003.31 1003.15 1003.07 1003.08 1003.15 1003.28 1003.47 1003.70 1003.97 1004.28 1004.59 1004.91 1005.20 1005.46 1005.67 1005.82 1005.92 1005.98 1006.03 1006.10 1006.22 1006.42 1006.75 1007.21 1007.82 1008.56 1009.43 1010.38 1011.40 1012.43 1013.46 1014.46 1015.42 1016.34 1017.21 1018.07 1018.90 1019.74 1020.58 1021.41 1022.23 1023.03 1023.78 1024.46
1002.81 1002.67 1002.63 1002.67 1002.80 1003.00 1003.27 1003.61 1004.00 1004.42 1004.86 1005.29 1005.69 1006.05 1006.36 1006.60 1006.79 1006.93 1007.04 1007.16 1007.33 1007.56 1007.89 1008.33 1008.88 1009.55 1010.31 1011.13 1012.00 1012.89 1013.76 1014.63 1015.47 1016.29 1017.10 1017.90 1018.71 1019.53 1020.36 1021.17 1021.97 1022.73 1023.42 1024.04
1002.55 1002.46 1002.46 1002.53 1002.70 1002.94 1003.26 1003.64 1004.08 1004.56 1005.06 1005.56 1006.05 1006.49 1006.89 1007.23 1007.51 1007.75 1007.97 1008.19 1008.43 1008.72 1009.07 1009.51 1010.03 1010.62 1011.27 1011.97 1012.69 1013.42 1014.16 1014.89 1015.63 1016.36 1017.11 1017.87 1018.66 1019.46 1020.26 1021.05 1021.80 1022.51 1023.14 1023.69
1002.65 1002.60 1002.63 1002.72 1002.88 1003.11 1003.42 1003.79 1004.22 1004.69 1005.20 1005.72 1006.24 1006.74 1007.21 1007.64 1008.03 1008.39 1008.73 1009.06 1009.41 1009.78 1010.18 1010.63 1011.12 1011.65 1012.21 1012.79 1013.39 1013.99 1014.60 1015.22 1015.86 1016.53 1017.23 1017.96 1018.71 1019.50 1020.27 1021.03 1021.74 1022.39 1022.95 1023.43
Thickness
5666 5655 5654 5660 5663 5666 5662 5659 5661 5666 5675 5664 5662 5669 5678 5669 5664 5664 5662 5662 5663 5664 5656 5650 5648 5647 5645 5644 5642 5641 5640 5637 5635 5632 5629 5624 5618 5615 5613 5611 5610 5609 5607 5604
5645 5647 5663 5663 5660 5659 5657 5653 5651 5657 5665 5656 5655 5660 5672 5670 5665 5670 5673 5672 5672 5662 5649 5647 5644 5643 5642 5640 5638 5637 5634 5632 5630 5628 5624 5618 5611 5605 5603 5601 5599 5598 5596 5593
5643 5656 5661 5654 5652 5648 5646 5643 5645 5644 5653 5654 5647 5646 5663 5674 5670 5672 5675 5678 5676 5669 5659 5649 5643 5640 5638 5636 5634 5633 5629 5626 5623 5619 5615 5609 5603 5597 5592 5589 5587 5586 5584 5582
5637 5652 5653 5647 5646 5644 5640 5648 5644 5641 5633 5626 5632 5620 5654 5668 5670 5673 5678 5676 5675 5672 5663 5651 5644 5639 5636 5633 5629 5627 5623 5619 5615 5611 5609 5606 5599 5590 5583 5580 5577 5574 5572 5569
5636 5644 5645 5644 5648 5644 5642 5647 5641 5635 5624 5615 5619 5613 5638 5661 5664 5675 5683 5684 5682 5676 5665 5655 5647 5641 5633 5627 5623 5620 5615 5611 5607 5603 5601 5598 5591 5584 5575 5570 5566 5562 5558 5556
5637 5643 5645 5650 5650 5645 5638 5631 5622 5611 5607 5599 5619 5612 5628 5652 5669 5679 5689 5691 5687 5677 5665 5653 5641 5632 5626 5620 5616 5613 5608 5603 5599 5594 5591 5589 5583 5575 5567 5561 5556 5551 5546 5542
5622 5630 5638 5642 5634 5631 5629 5613 5594 5592 5584 5598 5616 5611 5636 5660 5675 5684 5691 5693 5684 5672 5660 5646 5636 5628 5622 5616 5611 5606 5601 5596 5591 5586 5582 5578 5575 5570 5563 5556 5549 5542 5535 5529
5603 5612 5626 5631 5633 5623 5620 5616 5594 5583 5583 5590 5599 5601 5638 5658 5665 5670 5672 5675 5672 5661 5653 5643 5635 5627 5619 5612 5605 5600 5596 5590 5584 5579 5573 5568 5564 5560 5554 5548 5541 5534 5527 5520
5607 5611 5624 5625 5629 5625 5607 5605 5613 5592 5578 5571 5589 5609 5630 5647 5652 5657 5662 5662 5659 5653 5645 5637 5628 5620 5613 5606 5600 5595 5589 5583 5577 5571 5565 5559 5554 5549 5543 5536 5530 5523 5516 5509
5605 5597 5608 5608 5612 5614 5608 5601 5585 5581 5572 5573 5591 5603 5626 5640 5650 5657 5656 5655 5652 5643 5634 5626 5618 5611 5604 5598 5591 5586 5582 5577 5570 5564 5558 5552 5545 5539 5533 5526 5519 5512 5505 5498
5597 5590 5585 5586 5593 5597 5595 5591 5590 5583 5576 5572 5581 5618 5638 5646 5652 5653 5655 5656 5645 5633 5626 5618 5609 5600 5593 5586 5582 5578 5573 5568 5561 5556 5550 5543 5535 5529 5522 5516 5509 5502 5494 5486
5590 5583 5572 5575 5585 5591 5592 5592 5588 5578 5573 5576 5592 5629 5641 5642 5645 5646 5648 5646 5634 5624 5615 5606 5597 5588 5582 5577 5574 5570 5566 5560 5555 5548 5542 5535 5527 5519 5512 5505 5498 5490 5482 5474
5579 5565 5558 5562 5568 5571 5574 5579 5585 5589 5582 5579 5584 5619 5623 5625 5633 5635 5634 5632 5622 5613 5604 5595 5587 5581 5576 5571 5567 5563 5558 5553 5546 5540 5533 5525 5518 5511 5503 5495 5487 5478 5470 5461
5574 5560 5562 5576 5582 5572 5568 5574 5580 5577 5577 5587 5602 5623 5618 5618 5620 5625 5623 5619 5609 5602 5598 5590 5583 5578 5572 5567 5562 5557 5552 5545 5538 5531 5524 5518 5511 5503 5494 5485 5476 5467 5457 5448
5560 5552 5561 5576 5578 5567 5569 5573 5573 5576 5588 5588 5611 5620 5632 5616 5617 5619 5615 5607 5597 5592 5589 5587 5583 5577 5570 5563 5558 5553 5547 5539 5531 5524 5517 5510 5501 5491 5482 5472 5463 5454 5444 5436
5551 5547 5549 5556 5564 5555 5553 5565 5575 5577 5580 5586 5596 5621 5634 5617 5613 5611 5609 5602 5595 5591 5589 5588 5584 5576 5570 5565 5558 5550 5543 5534 5525 5517 5510 5500 5489 5479 5470 5461 5450 5440 5431 5421
5537 5536 5538 5551 5554 5534 5544 5576 5573 5569 5576 5578 5587 5621 5616 5602 5603 5610 5612 5604 5599 5597 5595 5591 5588 5582 5576 5568 5559 5549 5540 5527 5516 5508 5498 5488 5479 5468 5459 5448 5437 5428 5419 5408
5534 5530 5530 5538 5535 5542 5577 5592 5575 5569 5575 5577 5585 5603 5600 5599 5604 5608 5610 5603 5602 5603 5599 5593 5586 5580 5573 5563 5551 5539 5526 5515 5505 5495 5486 5477 5467 5457 5446 5435 5426 5417 5407 5396
5537 5532 5528 5531 5540 5546 5567 5574 5571 5564 5574 5591 5585 5595 5597 5589 5579 5597 5600 5597 5603 5601 5596 5593 5588 5581 5570 5556 5543 5528 5516 5505 5494 5485 5477 5468 5457 5445 5434 5425 5416 5406 5394 5384
5528 5530 5527 5529 5536 5543 5572 5571 5565 5558 5564 5594 5578 5584 5588 5575 5565 5602 5601 5589 5590 5590 5588 5584 5575 5567 5556 5545 5530 5516 5505 5494 5487 5479 5469 5457 5446 5435 5426 5417 5405 5394 5383 5374
5522 5521 5527 5530 5534 5539 5555 5546 5546 5544 5569 5568 5565 5572 5572 5567 5575 5583 5573 5572 5571 5571 5568 5564 5559 5552 5544 5532 5518 5506 5495 5488 5481 5468 5455 5444 5435 5425 5416 5404 5393 5382 5370 5358
5515 5517 5521 5523 5528 5538 5535 5525 5541 5549 5542 5537 5540 5542 5544 5545 5546 5545 5546 5545 5544 5543 5543 5541 5537 5531 5524 5515 5505 5495 5487 5481 5465 5453 5443 5433 5423 5412 5401 5390 5379 5367 5355 5344
5500 5510 5514 5516 5523 5520 5512 5520 5519 5516 5517 5518 5518 5521 5522 5523 5522 5521 5520 5518 5518 5518 5517 5516 5513 5505 5499 5494 5490 5482 5472 5460 5449 5438 5428 5418 5407 5397 5387 5377 5364 5351 5340 5330
5480 5483 5490 5493 5498 5495 5492 5492 5493 5494 5499 5499 5500 5501 5502 5504 5501 5498 5495 5493 5492 5490 5489 5488 5486 5480 5473 5469 5466 5460 5450 5442 5433 5423 5412 5401 5391 5380 5369 5360 5350 5338 5326 5315
5470 5464 5472 5480 5481 5473 5476 5474 5476 5475 5477 5479 5481 5482 5483 5483 5480 5477 5473 5470 5467 5466 5463 5462 5461 5456 5449 5444 5438 5433 5428 5422 5413 5402 5392 5382 5372 5362 5350 5340 5331 5322 5313 5304
5446 5453 5463 5472 5470 5468 5473 5470 5463 5461 5461 5461 5463 5463 5464 5464 5462 5457 5453 5450 5447 5444 5441 5439 5435 5430 5424 5419 5413 5408 5405 5401 5392 5381 5370 5361 5351 5340 5330 5319 5308 5302 5294 5285